Flag for Switzerland Weather past 2 weeks in La-Chaux-de-Fonds, Neuchâtel, Switzerland

Now
66 °F

Sunny.


Feels Like: 66 °F
Forecast: 57 / 66 °F
Wind: No wind

Location: Les Eplatures

Current Time: Aug 3, 2015 at 10:17:03 PM

Latest Report: Aug 3, 2015 at 9:20 PM


Visibility: 10 mi

Pressure: 30.12 "Hg (26.80 "Hg at 1000m altitude)

Humidity: 73%

Dew point: 57 °F

Location of La-Chaux-de-FondsLocation

Historic Weather in La-Chaux-de-Fonds — Graph

°F

La-Chaux-de-Fonds temperature yesterday

Maximum temperature yesterday: 72 °F (at 4:20 PM)
Minimum temperature yesterday: 45 °F (at 6:50 AM)
Average temperature yesterday: 60 °F

Past Weeks' High & Low Weather Summary

 TemperatureHumidityPressure
High82 °F (Jul 21, 3:50 PM)100% (Jul 23, 12:50 AM)30.18 "Hg (Jul 23, 12:50 AM)
Low37 °F (Jul 30, 5:20 AM)37% (Jul 31, 3:50 PM)29.86 "Hg (Jul 24, 6:50 PM)
Average60 °F74%30.05 "Hg
* Reported Jul 19 9:20 PM — Aug 3 9:20 PM, La-Chaux-de-Fonds, Weather by CustomWeather, © 2015

Note: Actual official high and low records may vary slightly from our data, if they occured in-between our weather recording intervals... More about our weather records

Advertising

La-Chaux-de-Fonds weather history for previous 24 hours

 ConditionsComfort  
Time TempWeatherWind HumidityBarometerVisibility
9:20 PM
Mon, Aug 3
66 °FSunny.No wind73%30.12 "Hg10 mi
8:50 PM68 °FSunny.1 mph73%30.12 "Hg10 mi
8:20 PM70 °FSunny.1 mph69%30.12 "Hg10 mi
7:50 PM77 °FSunny.2 mph51%30.12 "Hg10 mi
7:20 PM79 °FSunny.2 mph48%30.12 "Hg10 mi
6:50 PM79 °FSunny.7 mph48%30.12 "Hg10 mi
6:20 PM79 °FPassing clouds.3 mph48%30.12 "HgN/A
5:50 PM79 °FPassing clouds.5 mph48%30.12 "HgN/A
5:20 PM79 °FSunny.3 mph51%30.15 "Hg10 mi
4:50 PM79 °FPassing clouds.5 mph48%30.15 "HgN/A
4:20 PM79 °FPassing clouds.3 mph48%30.15 "HgN/A
3:50 PM79 °FScattered clouds.3 mph45%30.15 "HgN/A
3:20 PM79 °FScattered clouds.3 mph45%30.15 "HgN/A
2:50 PM79 °FSunny.3 mph45%30.15 "Hg10 mi
2:20 PM77 °FSunny.3 mph44%30.15 "Hg10 mi
1:50 PM77 °FPassing clouds.7 mph44%30.15 "HgN/A
1:20 PM77 °FWarm.2 mph44%30.18 "HgN/A
12:50 PM75 °FPassing clouds.5 mph47%30.18 "HgN/A
12:20 PM75 °FPassing clouds.6 mph44%30.18 "HgN/A
11:50 AM73 °FPassing clouds.6 mph47%30.18 "HgN/A
11:20 AM73 °FPassing clouds.7 mph53%30.18 "HgN/A
10:50 AM72 °FPassing clouds.8 mph53%30.18 "HgN/A
10:20 AM72 °FPassing clouds.7 mph57%30.18 "HgN/A
9:50 AM70 °FPassing clouds.5 mph60%30.18 "HgN/A
9:20 AM68 °FSunny.3 mph64%30.15 "Hg10 mi
8:50 AM66 °FSunny.3 mph68%30.15 "Hg10 mi
8:20 AM64 °FSunny.1 mph78%30.15 "Hg10 mi
7:50 AM59 °FClear.No wind88%30.15 "Hg10 mi
7:20 AM55 °FClear.No wind88%30.15 "Hg10 mi
6:50 AM52 °FClear.No wind94%30.15 "Hg10 mi
6:20 AM52 °FClear.No wind94%30.15 "Hg10 mi
5:50 AM52 °FClear.No wind94%30.15 "Hg10 mi
5:20 AM52 °FClear.No wind88%30.15 "Hg10 mi
4:50 AM52 °FClear.1 mph94%30.15 "Hg10 mi
4:20 AM54 °FClear.No wind88%30.15 "Hg10 mi
3:50 AM54 °FClear.1 mph88%30.15 "Hg10 mi
3:20 AM52 °FClear.No wind88%30.15 "Hg10 mi
2:50 AM55 °FClear.No wind88%30.12 "Hg10 mi
2:20 AM54 °FClear.1 mph94%30.15 "Hg10 mi
1:50 AM55 °FClear.No wind82%30.15 "Hg10 mi
1:20 AM55 °FClear.1 mph82%30.15 "Hg10 mi
12:50 AM57 °FClear.1 mph82%30.15 "Hg10 mi
12:20 AM57 °FFog.1 mph82%30.15 "Hg1 mi
11:50 PM
Sun, Aug 2
59 °FClear.1 mph77%30.15 "Hg10 mi
11:20 PM59 °FClear.2 mph77%30.15 "Hg10 mi
10:50 PM59 °FSunny.2 mph77%30.15 "Hg10 mi
10:20 PM63 °FSunny.2 mph73%30.15 "Hg10 mi
Weather by CustomWeather, © 2015

See weather overviewHow to use our weather pages